Change the Weather History Date:

Wednesday, May 23, 2012

  Actual Average Record
Temperature  
Mean Temperature 74 °F -  
Max Temperature 84 °F 83 °F 98 °F (2014)
Min Temperature 63 °F 64 °F 49 °F (1954)
Cooling Degree Days 8    
Growing Degree Days 24 (Base 50)    
Moisture  
Dew Point 66 °F    
Average Humidity 74    
Maximum Humidity 90    
Minimum Humidity 58    
Precipitation  
Precipitation 0.00 in - - ()
Sea Level Pressure  
Sea Level Pressure 29.88 in    
Wind  
Wind Speed 6 mph (South)    
Max Wind Speed 12 mph    
Max Gust Speed 24 mph    
Visibility 10 miles    
Events Rain , Thunderstorm    
Averages and records for this station are not official NWS values.
T = Trace of Precipitation, MM = Missing Value Source: NWS Daily Summary

Daily Weather History Graph

Daily Weather History Graph

Search for Another Location

Airport or City:

Trip Planner

Search our weather history database for the weather conditions in past years. The results will help you decide how hot, cold, wet, or windy it might be!

Date:

Astronomy

May. 23, 2012 Rise Set
Actual Time 6:19 AM EDT 8:20 PM EDT
Civil Twilight 5:52 AM EDT 8:47 PM EDT
Nautical Twilight 5:18 AM EDT 9:21 PM EDT
Astronomical Twilight 4:42 AM EDT 9:57 PM EDT
Moon 8:21 AM EDT (5/23) 10:41 PM EDT (5/23)
Length of Visible Light 14h 55m
Length of Day
14h 00m
Waxing Crescent, 6% of the Moon is Illuminated
May 23
Waxing Crescent
May 28
First Quarter
Jun 4
Full
Jun 11
Last Quarter
Jun 19
New

Hourly Weather History & Observations

Time (EDT) Temp. Heat Index Dew Point Humidity Pressure Visibility Wind Dir Wind Speed Gust Speed Precip Events Conditions
12:22 AM 71.6 °F - 64.4 °F 78% 29.86 in 10.0 mi SSW 8.1 mph 18.4 mph 0.00 in Rain , Thunderstorm Light Thunderstorms and Rain
12:38 AM 71.6 °F - 64.4 °F 78% 29.86 in 10.0 mi South 5.8 mph - 0.00 in   Scattered Clouds
12:56 AM 72.0 °F - 64.0 °F 76% 29.87 in 10.0 mi South 4.6 mph - 0.00 in   Mostly Cloudy
1:18 AM 71.6 °F - 64.4 °F 78% 29.87 in 10.0 mi SSW 5.8 mph - N/A Thunderstorm Thunderstorm
1:37 AM 73.4 °F - 64.4 °F 73% 29.87 in 10.0 mi SSW 9.2 mph - N/A   Clear
1:56 AM 72.0 °F - 62.1 °F 71% 29.88 in 10.0 mi SSW 11.5 mph 24.2 mph N/A   Clear
2:56 AM 71.1 °F - 61.0 °F 70% 29.83 in 10.0 mi Variable 6.9 mph - N/A   Clear
3:56 AM 68.0 °F - 62.1 °F 81% 29.86 in 10.0 mi South 4.6 mph - N/A   Clear
4:56 AM 66.0 °F - 61.0 °F 84% 29.86 in 10.0 mi Calm Calm - N/A   Clear
5:56 AM 63.0 °F - 60.1 °F 90% 29.86 in 10.0 mi Calm Calm - N/A   Clear
6:56 AM 64.9 °F - 61.0 °F 87% 29.87 in 4.0 mi Calm Calm - N/A   Partly Cloudy
7:56 AM 69.1 °F - 64.0 °F 84% 29.88 in 5.0 mi Calm Calm - N/A   Scattered Clouds
8:56 AM 73.0 °F - 64.0 °F 73% 29.90 in 10.0 mi WSW 5.8 mph - N/A   Scattered Clouds
9:56 AM 77.0 °F - 64.0 °F 64% 29.90 in 10.0 mi SSW 4.6 mph - N/A   Clear
10:56 AM 79.0 °F - 64.9 °F 62% 29.91 in 10.0 mi SSE 3.5 mph - N/A   Clear
11:56 AM 81.0 °F 83.0 °F 66.0 °F 60% 29.91 in 10.0 mi Calm Calm - N/A   Clear
12:56 PM 82.9 °F 85.8 °F 68.0 °F 60% 29.90 in 10.0 mi South 3.5 mph - N/A   Clear
1:56 PM 82.9 °F 86.5 °F 69.1 °F 63% 29.89 in 10.0 mi South 5.8 mph - N/A   Scattered Clouds
2:56 PM 84.0 °F 87.0 °F 68.0 °F 58% 29.87 in 10.0 mi South 4.6 mph - N/A   Partly Cloudy
3:56 PM 82.9 °F 85.8 °F 68.0 °F 60% 29.86 in 10.0 mi South 6.9 mph - N/A   Scattered Clouds
4:56 PM 82.9 °F 86.5 °F 69.1 °F 63% 29.85 in 10.0 mi South 8.1 mph - N/A   Scattered Clouds
5:56 PM 82.0 °F 86.3 °F 71.1 °F 69% 29.86 in 10.0 mi South 6.9 mph - N/A   Clear
6:56 PM 79.0 °F - 69.1 °F 72% 29.86 in 10.0 mi South 6.9 mph - N/A   Partly Cloudy
7:56 PM 78.1 °F - 70.0 °F 76% 29.88 in 10.0 mi South 6.9 mph - N/A   Clear
8:56 PM 75.9 °F - 70.0 °F 82% 29.90 in 10.0 mi South 3.5 mph - N/A   Scattered Clouds
9:56 PM 75.9 °F - 71.1 °F 85% 29.91 in 10.0 mi South 5.8 mph - N/A   Overcast
10:56 PM 75.9 °F - 70.0 °F 82% 29.92 in 10.0 mi South 5.8 mph - N/A   Clear
11:56 PM 75.9 °F - 71.1 °F 85% 29.93 in 10.0 mi Variable 4.6 mph - N/A   Clear